Regional Weather Roundup
Issued by NWS Jackson, KY

Home | Current Version | Previous Version | Graphics & Text | Print | Product List | Glossary On
Versions: 1 2 3 4 5 6 7 8 9 10 11 12 13 14 15 16 17 18 19 20 21 22 23 24 25 26 27 28 29 30 31 32 33 34 35 36 37 38 39 40 41 42 43 44 45 46 47 48 49 50
000
ASUS43 KJKL 061210
RWRJKL

EAST KENTUCKY HOURLY WEATHER ROUNDUP
NATIONAL WEATHER SERVICE JACKSON KY
700 AM EST FRI MAR 06 2015

NOTE: "FAIR" INDICATES FEW OR NO CLOUDS BELOW 12,000 FEET WITH
NO SIGNIFICANT WEATHER AND/OR OBSTRUCTIONS TO VISIBILITY.

* THESE REPORTS ARE NOT UNDER NWS QUALITY CONTROL AND MAY NOT
  REPORT WEATHER SUCH AS PRECIPITATION AND FOG.

KYZ079-080-083-085-087-088-110-112-115-119-120-061300
...EASTERN KENTUCKY...

CITY           SKY/WX    TMP DP  RH WIND       PRES   REMARKS
JACKSON        PTCLDY     8   3  80 CALM      30.48F
6HR MIN TEMP:   8; 6HR MAX TEMP:  14;

LONDON         MOCLDY     3  -2  79 CALM      30.49F
6HR MIN TEMP:   3; 6HR MAX TEMP:   8;

SOMERSET*      CLOUDY     3   0  85 CALM      30.54S FOG
MONTICELLO*    PTCLDY   -11 -17  77 CALM      30.55S HAZE
6HR MIN TEMP: -11; 6HR MAX TEMP:  -5; 6HR PCP: TRACE;

MIDDLESBORO*   PTCLDY    11  10  92 CALM      30.51F
6HR MIN TEMP:  11; 6HR MAX TEMP:  17;

HAZARD APT*    SUNNY      3   1  92 CALM      30.50S
BLACK MTN*       N/A     -2  -2 100 CALM        N/A
PIKEVILLE APT* CLEAR     10   7  85 CALM      30.48S
BIG SANDY*     PTSUNNY    8   6  91 CALM      30.50F
6HR MIN TEMP:   8; 6HR MAX TEMP:  13;

MOREHEAD APT*  MOSUNNY    3  -2  78 CALM      30.54S
$$

KYZ035-036-041-042-044-050-067-078-099-061300
...CENTRAL KENTUCKY...

CITY           SKY/WX    TMP DP  RH WIND       PRES   REMARKS
MT STERLING*   MOCLDY   N/A N/A N/A SE3       30.53S
FLEMING/MASON* FOG      N/A N/A N/A CALM      30.54S VSB 1/4
DANVILLE*      PTCLDY    -6  -8  92 CALM      30.53S
RICHMOND*      CLOUDY   N/A N/A N/A CALM      30.52R VSB 1/4
LEXINGTON      MIX PCPN   0  -2  91 CALM      30.52S
6HR MIN TEMP:  -2; 6HR MAX TEMP:   7; 6HR PCP: TRACE;

FRANKFORT      MOCLDY    -9 -14  78 CALM      30.53S
6HR MIN TEMP:  -9; 6HR MAX TEMP:   1;

$$

KYZ091>093-OHZ055-061-077-WVZ005-015-034-035-042-061300
...SOUTHERN OHIO/WEST VIRGINIA...

CITY           SKY/WX    TMP DP  RH WIND       PRES   REMARKS
COVINGTON      MOCLDY     3  -2  79 CALM      30.53F FOG
COLUMBUS       PTCLDY     5   1  83 CALM      30.53S
DAYTON         PTCLDY     8   2  76 CALM      30.51F
WILMINGTON     PTCLDY    -3  -7  82 CALM      30.51S
HUNTINGTON     FOG        1  -1  91 CALM      30.54S VSB<1/4
CHARLESTON     MOCLDY     5   1  83 CALM      30.53S
PINEVILLE*     PTCLDY     9   8  95 MISG      30.50S
BECKLEY        LGT SNOW   8   4  83 CALM      30.38R FOG
BLUEFIELD      MOCLDY     8   3  80 CALM      30.35R
$$

VAZ002-007-008-TNZ017-027-036-066-071-061300
...SOUTHWEST VIRGINIA/EAST TENNESSEE...

CITY           SKY/WX    TMP DP  RH WIND       PRES   REMARKS
WISE*          LGT SNOW   9   5  85 CALM      30.37S
JONESVILLE*    MOSUNNY    7   5  92 CALM      30.50F
ABINGDON*      MOCLDY    14  11  85 CALM      30.41S
BRISTOL        PTCLDY    14   8  77 N3        30.46S
KNOXVILLE      FLURRIES  19  14  81 N8        30.47S WCI   9
OAK RIDGE      MOCLDY    17   9  70 NE5       30.50S WCI  10
CROSSVILLE     MOCLDY    12   7  80 NE5       30.40F WCI   4
NASHVILLE      PTCLDY    11   6  81 NW5       30.56S WCI   3
$$

...KEY TO REMARKS...
VSB - VISIBILITY IN MILES
WCI - WIND CHILL INDEX
HX  - HEAT INDEX

$$


USA.gov is the U.S. government's official web portal to all federal, state and local government web resources and services.